This is the latest recevied weather packets stored in our database for station/object KQ4JKJ. If no packets are shown the sender has not sent any weather packets the latest 10 day(s).
| Time | Temp. | Humidity | Pressure | Rain* | Wind** | Luminosity | Snow |
|---|---|---|---|---|---|---|---|
| 1777919936 | 24.44° C | 67% | 1011.3 hPa | 0 mm | - | 223 W/m² | - |
| 1777919634 | 23.89° C | 67% | 1011.2 hPa | 0 mm | - | 175 W/m² | - |
| 1777919332 | 24.44° C | 66% | 1011.3 hPa | 0 mm | - | 157 W/m² | - |
| 1777919029 | 24.44° C | 65% | 1011.6 hPa | 0 mm | - | 204 W/m² | - |
| 1777918725 | 24.44° C | 66% | 1011.3 hPa | 0 mm | - | 185 W/m² | - |
| 1777918423 | 24.44° C | 65% | 1011.8 hPa | 0 mm | - | 191 W/m² | - |
| 1777918122 | 25° C | 66% | 1011.3 hPa | 0 mm | - | 112 W/m² | - |
| 1777917820 | 25° C | 65% | 1011.4 hPa | 0 mm | - | 225 W/m² | - |
| 1777917518 | 25° C | 64% | 1011.2 hPa | 0 mm | - | 272 W/m² | - |
| 1777917214 | 25° C | 64% | 1011.2 hPa | 0 mm | - | 643 W/m² | - |
| 1777916912 | 26.11° C | 62% | 1011.3 hPa | 0 mm | - | 552 W/m² | - |
| 1777916609 | 26.11° C | 63% | 1011.4 hPa | 0 mm | - | 704 W/m² | - |
| 1777916306 | 26.11° C | 63% | 1011.5 hPa | 0 mm | - | 674 W/m² | - |
| 1777916003 | 25.56° C | 63% | 1011.4 hPa | 0 mm | - | 600 W/m² | - |
| 1777915700 | 25.56° C | 62% | 1011.4 hPa | 0 mm | - | 632 W/m² | - |
| 1777915397 | 26.11° C | 62% | 1011.4 hPa | 0 mm | - | 314 W/m² | - |
| 1777915092 | 26.67° C | 61% | 1011.6 hPa | 0 mm | - | 849 W/m² | - |
| 1777914790 | 25.56° C | 63% | 1011.5 hPa | 0 mm | - | 902 W/m² | - |
| 1777914487 | 24.44° C | 66% | 1011.7 hPa | 0 mm | - | 375 W/m² | - |
| 1777914184 | 24.44° C | 66% | 1011.8 hPa | 0 mm | - | 145 W/m² | - |
| 1777913880 | 24.44° C | 65% | 1011.9 hPa | 0 mm | - | 140 W/m² | - |
| 1777913577 | 24.44° C | 65% | 1011.7 hPa | 0 mm | - | 320 W/m² | - |
| 1777913273 | 24.44° C | 65% | 1011.8 hPa | 0 mm | - | 168 W/m² | - |
| 1777912970 | 24.44° C | 65% | 1011.9 hPa | 0 mm | - | 193 W/m² | - |
| 1777912666 | 25° C | 65% | 1011.9 hPa | 0 mm | - | 180 W/m² | - |
* Rain latest hour (hover to see other rain measurements)
** Current wind speed in m/s (hover to see current wind gust speed)